Regional Weather Roundup
Issued by NWS Newport/Morehead, NC

Current Version | Previous Version | Graphics & Text | Print | Product List | Glossary Off
Versions: 1 2 3 4 5 6 7 8 9 10 11 12 13 14 15 16 17 18 19 20 21 22 23 24 25 26 27 28 29 30 31 32 33 34 35 36 37 38 39 40 41 42 43 44 45 46 47 48 49 50
000 ASUS42 KMHX 301910 RWRMHX WEATHER ROUNDUP FOR EASTERN NORTH CAROLINA NATIONAL WEATHER SERVICE NEWPORT/MOREHEAD CITY NC 300 PM EDT TUE SEP 30 2014 NOTE: "FAIR" INDICATES FEW OR NO CLOUDS BELOW 12,000 FEET WITH NO SIGNIFICANT WEATHER AND/OR OBSTRUCTIONS TO VISIBILITY NCZ015>017-031-032-045>047-102-103-302000- NORTH COAST CITY SKY/WX TMP DP RH WIND PRES REMARKS EDENTON PTSUNNY 75 65 70 S6 29.85F ELIZABETH CITY SUNNY 78 62 57 N6 29.85F KITTY HAWK CLEAR 74 63 67 N6 29.84F MANTEO MOSUNNY 74 63 67 N10 29.85F $$ NCZ045>047-081-094-103-104-302000- CENTRAL COAST CITY SKY/WX TMP DP RH WIND PRES REMARKS FRISCO SUNNY 73 65 75 NE12G18 29.83F SWANQUARTER N/A 79 N/A N/A N7G15 29.79S $$ NCZ095-097-098-100-101-302000- SOUTHERN COAST CITY SKY/WX TMP DP RH WIND PRES REMARKS BEAUFORT SUNNY 79 63 57 NE13 29.83F CEDAR ISLAND N/A 75 N/A N/A NE8 29.88S JACKSONVILLE MOSUNNY 81 62 52 N13 29.82F NEWPORT NOT AVBL PINEY ISLAND CLEAR 77 62 59 NE8 29.83F WILMINGTON PTSUNNY 82 65 56 N9 29.83F $$ NCZ011>013-027>030-043-044-078>080-089-090>093-098-302000- COASTAL PLAIN CITY SKY/WX TMP DP RH WIND PRES REMARKS AHOSKIE SUNNY 74 62 68 N5 29.87F CLINTON MOSUNNY 77 65 66 CALM 29.85F ELIZABETHTOWN MOSUNNY 79 63 58 NE3 29.85F GOLDSBORO MOSUNNY 78 68 70 CALM 29.84F GREENVILLE MOSUNNY 79 63 57 CALM 29.88F HAVELOCK MOSUNNY 79 65 62 E9 29.84F KENANSVILLE PTSUNNY 78 61 55 N7 29.86F KINSTON PTSUNNY 79 63 57 N7 29.86F NEW BERN SUNNY 81 63 54 NE7 29.85F RICHLANDS PTSUNNY 79 61 53 N7 29.84F ROANOKE RAPIDS NOT AVBL ROCKY MOUNT MOSUNNY 74 64 71 N7 29.88F WASHINGTON MOSUNNY 78 63 60 NE3 29.85F WHITEVILLE PTSUNNY 79 64 58 N6 29.84F $$ AMZ130-135-150-152-154-156-158-170-250-252-270-ANZ085-086-088-633-658-670-302000- MARINE OBSERVATIONS STATION/POSITION TIME TEMP WIND PRES WAVE SWELL AIR SEA DIR/SP/G HT/PER HT/PER (UTC) (F) (DEG/KT/KT) (MB) (FT/S) (FT/S) CHESAPEAKE LIGHT 1800 70 40/ 10/ 11 1012.4 BUOY 44014 1900 70 72 40/ 8/ 10 1010.7 2/ 8 2/ 8 DUCK 1900 71 73 20/ 9/ 11 1010.3 2E DUCK 1900 N/A 2/14 OREGON INLET 1900 73 73 20/ 10/ 15 1010.7 BUOY 44095 1900 74 N/A 3/ 8 20E OREGON INLET NOT AVBL HATTERAS CG 1900 72 74 20/ 14/ 16 1010.7 DIAMOND BUOY 1900 74 350/ 16/ 17 1009.6 4/ 7 2/ 8 CAPE LOOKOUT 1900 74 40/ 13/ 15 1009.9 BEAUFORT LAB 1900 76 74 10/ 11/ 13 1009.6 30 SE NEW RIVER 1800 74 80 30/ 14/ 17 1009.5 5 SE WRIGHTSVILL 1800 71 76 60/ 10/ 12 N/A BUOY 41002 1751 75 80 130/ 10/ 12 1007.7 3/ 8 2/ 8 BUOY 41004 1900 75 81 20/ 16/ 17 1009.4 4/ 6 2/ 8 $$

USA.gov is the U.S. government's official web portal to all federal, state and local government web resources and services.